[[{"header":{"parameterUnit":"m.s-1","parameterCategory":1,"la1":30.2991,"la2":30.254,"lo1":-89.0895,"lo2":-89.0444,"dy":0.0017,"dx":0.0017,"nx":28,"ny":28,"refTime":"2025-04-21T21:00:00:Z","depth":0,"parameterNumber":2,"parameterNumberName":"U-component_of_WINDS"},"data":[0,0,0,0,0,0,0,0,0,0,0,0,0,0,0,0,0,0,0,0,0,0,0,0,0,0,0,0,0,0,0,0,0,0,0,0,0,0,0,0,0,0,0,0,0,0,0,0,0,0,0,0,0,0,0,0,0,0,-2.4049,-2.4049,0,-2.4127,-2.4128,-2.4129,-2.4162,-2.4162,-2.4162,-2.4161,-2.424,-2.4242,-2.4244,0,0,0,0,0,0,0,0,0,0,0,0,0,-2.3925,-2.3927,-2.4048,-2.4049,-2.405,-2.4127,-2.4128,-2.4129,-2.4162,-2.4162,-2.4162,-2.4161,-2.4239,-2.4242,-2.4244,0,0,0,0,0,0,0,0,0,0,0,0,0,-2.3989,-2.3928,-2.4048,-2.4076,-2.4079,-2.4127,-2.4128,-2.4129,-2.4162,-2.4162,-2.4161,-2.4161,-2.4238,-2.4241,-2.4245,-2.427,0,0,-2.4255,-2.4256,0,0,0,0,0,0,0,0,-2.3985,-2.3993,-2.4071,-2.4074,-2.4078,-2.4135,-2.4113,-2.4176,-2.4162,-2.413,-2.4161,-2.4161,-2.4205,-2.4211,-2.4226,-2.4274,-2.4277,-2.4255,-2.4257,-2.4259,-2.426,0,0,0,0,0,0,0,-2.398,-2.399,-2.408,-2.4072,-2.4076,-2.4084,-2.4093,-2.4125,-2.4168,-2.4133,-2.4136,-2.4145,-2.4207,-2.4223,-2.4228,-2.4278,-2.4255,-2.4258,-2.426,-2.4261,-2.435,-2.435,0,0,0,0,0,0,-2.3972,-2.3986,-2.4077,-2.4082,-2.403,-2.4086,-2.4096,-2.4117,-2.4168,-2.4175,-2.4145,-2.4146,-2.4217,-2.4224,-2.4231,-2.4264,-2.4259,-2.4262,-2.4264,-2.435,-2.435,-2.4351,0,0,0,0,0,0,-2.3969,-2.398,-2.4074,-2.4035,-2.4047,-2.4089,-2.4111,-2.4118,-2.4134,-2.4176,-2.4184,-2.4154,-2.4217,-2.4226,-2.426,-2.4267,-2.4263,-2.4266,-2.4349,-2.435,-2.435,-2.433,0,0,0,0,0,0,-2.3965,-2.3978,-2.3989,-2.4035,-2.4049,-2.4102,-2.4112,-2.412,-2.414,-2.4143,-2.4187,-2.4194,-2.4218,-2.4255,-2.4263,-2.4272,-2.4269,-2.4349,-2.435,-2.435,-2.433,-2.4329,-2.4329,0,0,0,0,0,-2.3961,-2.3979,-2.3989,-2.4,-2.4063,-2.4103,-2.4111,-2.4139,-2.4141,-2.4151,-2.4178,-2.4192,-2.4265,-2.4258,-2.4268,-2.4277,-2.4349,-2.4349,-2.435,-2.433,-2.433,-2.4329,0,0,0,0,0,0,-2.3932,-2.3986,-2.3997,-2.4031,-2.4062,-2.4108,-2.4122,-2.4137,-2.4168,-2.4168,-2.4201,-2.4211,-2.4242,-2.4263,-2.4254,-2.4304,-2.4308,-2.4311,-2.4289,-2.4289,-2.4289,-2.4283,-2.4272,0,0,0,0,0,-2.393,-2.3958,-2.4003,-2.4029,-2.4044,-2.408,-2.4098,-2.4117,-2.415,-2.4163,-2.4193,-2.4224,-2.4254,-2.4273,-2.4302,-2.4333,-2.4343,-2.4344,-2.4344,-2.4343,-2.4345,-2.4363,-2.4364,-2.4353,-2.4353,-2.4353,0,0,-2.3926,-2.3958,-2.3974,-2.4024,-2.405,-2.4078,-2.4091,-2.412,-2.4141,-2.4167,-2.4201,-2.4224,-2.4261,-2.4293,-2.4309,-2.4312,-2.4351,-2.4344,-2.4344,-2.4346,-2.4364,-2.4365,-2.4366,-2.4354,-2.4354,-2.4354,0,0,-2.3932,-2.396,-2.3984,-2.401,-2.405,-2.4074,-2.408,-2.4123,-2.414,-2.4175,-2.4195,-2.422,-2.4271,-2.4296,-2.4316,-2.4332,-2.4346,-2.434,-2.4338,-2.4355,-2.4356,-2.4357,-2.4362,-2.4364,-2.4342,-2.4342,-2.4342,0,-2.3921,-2.3965,-2.3995,-2.4023,-2.4044,-2.407,-2.4095,-2.4118,-2.4165,-2.4179,-2.4182,-2.4247,-2.4273,-2.4312,-2.4316,-2.4331,-2.4338,-2.4335,-2.4353,-2.4355,-2.4356,-2.4362,-2.4364,-2.4341,-2.4341,-2.4342,-2.4342,0,-2.3949,-2.3979,-2.3994,-2.4039,-2.4062,-2.4088,-2.4122,-2.4141,-2.4158,-2.4182,-2.4217,-2.425,-2.4287,-2.4297,-2.4314,-2.4339,-2.4339,-2.4347,-2.4352,-2.4356,-2.4362,-2.4364,-2.434,-2.434,-2.4341,-2.4341,0,0,-2.394,-2.4002,-2.4007,-2.4028,-2.4073,-2.4097,-2.4124,-2.4161,-2.4177,-2.4208,-2.4231,-2.4274,-2.4282,-2.4304,-2.4324,-2.4339,-2.4349,-2.4345,-2.4346,-2.4344,-2.4378,-2.4372,-2.4374,-2.4359,-2.4359,-2.436,-2.4375,0,-2.3952,-2.4002,-2.403,-2.4069,-2.4096,-2.4122,-2.4145,-2.4176,-2.4199,-2.4225,-2.425,-2.428,-2.4288,-2.4301,-2.4317,-2.4344,-2.4356,-2.4344,-2.438,-2.4381,-2.437,-2.4377,-2.437,-2.4383,-2.4378,-2.4378,-2.4378,0,-2.3973,-2.4005,-2.4046,-2.4089,-2.4101,-2.4122,-2.4158,-2.4183,-2.4218,-2.4234,-2.4258,-2.4278,-2.4307,-2.4309,-2.435,-2.4341,-2.4357,-2.4373,-2.4374,-2.4378,-2.438,-2.4381,-2.4388,-2.439,-2.4382,-2.4382,-2.4382,0,-2.3962,-2.4015,-2.4046,-2.4063,-2.4114,-2.4128,-2.415,-2.4184,-2.4205,-2.4236,-2.4249,-2.4283,-2.4302,-2.4328,-2.4356,-2.4355,-2.4393,-2.4398,-2.4407,-2.4406,-2.4414,-2.4413,-2.4423,-2.4424,-2.4424,-2.4424,-2.4424,0,-2.3972,-2.3997,-2.4042,-2.4061,-2.4089,-2.4121,-2.4147,-2.4171,-2.4201,-2.4226,-2.425,-2.4272,-2.4308,-2.4334,-2.4356,-2.4386,-2.4394,-2.4407,-2.4413,-2.4405,-2.4404,-2.4416,-2.4416,-2.4425,-2.4425,-2.4425,-2.4425,0,-2.3964,-2.3996,-2.4032,-2.4077,-2.4089,-2.4107,-2.4146,-2.4165,-2.4189,-2.422,-2.4229,-2.4266,-2.4299,-2.4329,-2.4372,-2.4387,-2.4417,-2.4425,-2.4406,-2.4409,-2.4416,-2.4415,-2.4435,-2.4439,-2.4437,-2.4437,-2.4437,0,-2.3969,-2.3988,-2.4036,-2.4054,-2.4075,-2.4104,-2.4125,-2.4157,-2.4177,-2.4219,-2.4233,-2.4267,-2.4297,-2.4347,-2.4378,-2.4411,-2.4419,-2.4424,-2.4424,-2.4416,-2.4419,-2.4418,-2.442,-2.4423,-2.4423,-2.4423,-2.4423,0,-2.3974,-2.3989,-2.4018,-2.4053,-2.4078,-2.4107,-2.4137,-2.415,-2.4187,-2.421,-2.4243,-2.4266,-2.431,-2.4344,-2.4381,-2.4402,-2.4419,-2.4423,-2.4426,-2.4418,-2.4407,-2.4413,-2.4404,-2.4422,-2.4422,-2.4422,-2.4422,-2.4422,-2.3973,-2.3991,-2.4027,-2.4059,-2.4085,-2.4112,-2.4133,-2.416,-2.4189,-2.4228,-2.4245,-2.4278,-2.4313,-2.4364,-2.4386,-2.4412,-2.4416,-2.4422,-2.4423,-2.4424,-2.4422,-2.4403,-2.4419,-2.4419,-2.4419,-2.4419,-2.442,0,-2.3979,-2.4003,-2.4032,-2.4074,-2.4099,-2.4113,-2.4146,-2.4166,-2.4196,-2.4227,-2.4255,-2.4294,-2.4327,-2.436,-2.4395,-2.441,-2.4418,-2.4418,-2.4417,-2.4422,-2.4417,-2.441,-2.4411,-2.4411,-2.4411,-2.4411,-2.4411,-2.4411,-2.3985,-2.4017,-2.4035,-2.408,-2.4104,-2.4138,-2.4156,-2.4181,-2.4206,-2.4249,-2.4276,-2.4298,-2.433,-2.4367,-2.4398,-2.4407,-2.4419,-2.4416,-2.4427,-2.4422,-2.4422,-2.4423,-2.4417,-2.4418,-2.4418,-2.443,-2.443,-2.443]},{"header":{"parameterUnit":"m.s-1","parameterCategory":1,"la1":30.2991,"la2":30.254,"lo1":-89.0895,"lo2":-89.0444,"dy":0.0017,"dx":0.0017,"nx":28,"ny":28,"refTime":"2025-04-21T21:00:00:Z","depth":0,"parameterNumber":3,"parameterNumberName":"V-component_of_WINDS"},"data":[0,0,0,0,0,0,0,0,0,0,0,0,0,0,0,0,0,0,0,0,0,0,0,0,0,0,0,0,0,0,0,0,0,0,0,0,0,0,0,0,0,0,0,0,0,0,0,0,0,0,0,0,0,0,0,0,0,0,3.9717,3.9719,0,3.9932,3.9935,3.9937,3.9948,3.9946,3.9943,3.9941,4.0159,4.0167,4.0175,0,0,0,0,0,0,0,0,0,0,0,0,0,3.9312,3.932,3.9716,3.9719,3.9722,3.9932,3.9935,3.9938,3.9948,3.9945,3.9942,3.994,4.0156,4.0166,4.0175,0,0,0,0,0,0,0,0,0,0,0,0,0,3.9504,3.9322,3.9716,3.9753,3.9758,3.9931,3.9935,3.9938,3.9949,3.9945,3.9942,3.9938,4.0153,4.0165,4.0177,4.0327,0,0,4.0214,4.0219,0,0,0,0,0,0,0,0,3.9493,3.9519,3.9745,3.975,3.9757,3.9909,3.9872,4.0069,3.995,3.9877,3.9941,3.9936,4.0079,4.0097,4.0145,4.0337,4.0347,4.0215,4.0223,4.0228,4.0231,0,0,0,0,0,0,0,3.948,3.9509,3.9802,3.9748,3.9755,3.9758,3.9781,3.991,3.9996,3.9883,3.9884,3.9909,4.0081,4.0134,4.0151,4.035,4.0215,4.0226,4.0233,4.0238,4.0677,4.0681,0,0,0,0,0,0,3.946,3.9498,3.9795,3.9808,3.9613,3.9768,3.9794,3.9864,3.9995,4.0011,3.9912,3.9909,4.0115,4.0136,4.0158,4.0344,4.0228,4.0239,4.0246,4.0673,4.0678,4.0683,0,0,0,0,0,0,3.9451,3.9486,3.9786,3.9654,3.9692,3.9779,3.9858,3.987,3.9923,4.0017,4.0032,3.995,4.0112,4.0141,4.0286,4.0352,4.0245,4.0256,4.0668,4.0675,4.0681,4.0716,0,0,0,0,0,0,3.9439,3.9483,3.9541,3.9655,3.9699,3.9911,3.9862,3.9877,3.9944,3.9942,4.0057,4.0072,4.0112,4.0267,4.0298,4.0366,4.0265,4.0662,4.0671,4.0679,4.0709,4.0723,4.0734,0,0,0,0,0,3.9425,3.9542,3.9544,3.958,3.9774,3.9914,3.994,3.9984,3.9949,4.0009,4.0069,4.0068,4.0339,4.0282,4.0316,4.039,4.0658,4.0668,4.0678,4.0703,4.072,4.0734,0,0,0,0,0,0,3.9432,3.9557,3.9561,3.9719,3.9806,3.9916,3.9992,4.0,4.0098,4.0092,4.0141,4.0167,4.0311,4.0364,4.0298,4.0543,4.0495,4.0512,4.0502,4.0519,4.0531,4.0516,4.0275,0,0,0,0,0,3.9452,3.9556,3.966,3.9788,3.9832,3.9905,3.9967,3.9994,4.0086,4.0123,4.0194,4.0283,4.0388,4.0456,4.0558,4.0717,4.0742,4.0784,4.0796,4.0806,4.0821,4.0909,4.0929,4.0715,4.0715,4.0715,0,0,3.9495,3.9576,3.9638,3.9792,3.9863,3.9969,3.9936,4.0049,4.0129,4.014,4.0281,4.0337,4.0439,4.0591,4.0662,4.064,4.0886,4.0819,4.0826,4.0835,4.0921,4.0942,4.096,4.0722,4.072,4.0719,0,0,3.9626,3.9698,3.9814,3.9886,3.9994,4.0042,4.0069,4.0179,4.0217,4.0359,4.037,4.0465,4.0645,4.0718,4.0778,4.0939,4.0941,4.097,4.1036,4.1122,4.1139,4.1154,4.1212,4.1232,4.0984,4.0984,4.0984,0,3.9665,3.9827,3.9872,3.9987,4.0054,4.007,4.0188,4.0255,4.039,4.0437,4.0411,4.0638,4.0708,4.0878,4.0917,4.0965,4.0999,4.0958,4.1133,4.1149,4.1163,4.1219,4.1241,4.0987,4.0987,4.0986,4.0986,0,3.987,3.9981,4.0062,4.0194,4.027,4.0386,4.0448,4.052,4.054,4.059,4.0735,4.082,4.094,4.0982,4.1002,4.1156,4.1139,4.1122,4.1076,4.1186,4.1239,4.1261,4.0991,4.099,4.0989,4.0988,0,0,4.0012,4.0169,4.0198,4.0258,4.0379,4.0466,4.0582,4.07,4.0761,4.0854,4.0952,4.1105,4.1091,4.1159,4.1188,4.1263,4.1386,4.1237,4.1241,4.1263,4.156,4.1573,4.1597,4.1388,4.1392,4.1395,4.1552,0,4.0158,4.0367,4.0411,4.059,4.0695,4.0711,4.0812,4.0897,4.0947,4.1042,4.1097,4.1205,4.1177,4.1219,4.1294,4.1355,4.1446,4.1344,4.148,4.1484,4.1455,4.1625,4.1638,4.1782,4.1573,4.1577,4.1579,0,4.0357,4.0456,4.0646,4.0754,4.0799,4.0889,4.1002,4.1093,4.1189,4.122,4.1297,4.1318,4.1438,4.1385,4.1552,4.1482,4.154,4.1578,4.1585,4.16,4.1539,4.1645,4.1829,4.1851,4.1612,4.161,4.1607,0,4.0443,4.0624,4.0761,4.0812,4.0941,4.1004,4.1061,4.1154,4.1222,4.132,4.1365,4.1475,4.1535,4.162,4.1669,4.1626,4.1833,4.1784,4.1862,4.1861,4.1906,4.1902,4.2102,4.1942,4.1941,4.1941,4.194,0,4.0602,4.0718,4.0802,4.0887,4.1017,4.1067,4.1194,4.125,4.1333,4.1428,4.1448,4.1537,4.1597,4.1694,4.1733,4.1866,4.1893,4.1921,4.193,4.192,4.1917,4.196,4.1951,4.1947,4.1945,4.1944,4.1943,0,4.0722,4.0782,4.0934,4.1043,4.1074,4.1165,4.1259,4.1341,4.1391,4.1512,4.1543,4.1622,4.1737,4.1795,4.1938,4.1964,4.2115,4.2117,4.2083,4.2087,4.2162,4.2155,4.2398,4.2432,4.2247,4.2249,4.225,0,4.082,4.091,4.1029,4.1095,4.1154,4.1259,4.133,4.1382,4.1454,4.1571,4.164,4.1756,4.1853,4.2036,4.2106,4.2215,4.2221,4.2299,4.2238,4.2225,4.2224,4.2218,4.2227,4.231,4.2311,4.2313,4.2314,0,4.0988,4.1014,4.1115,4.1228,4.1311,4.1402,4.1491,4.1543,4.161,4.169,4.1809,4.1884,4.2031,4.2146,4.2261,4.2318,4.2328,4.2333,4.2357,4.2348,4.2325,4.2339,4.2114,4.2327,4.2326,4.2325,4.2324,4.2323,4.1101,4.1182,4.1279,4.1391,4.1464,4.1547,4.1631,4.1692,4.1792,4.1917,4.1941,4.2067,4.2161,4.2317,4.2377,4.2476,4.2459,4.2494,4.2503,4.2511,4.2516,4.2308,4.2497,4.2497,4.2497,4.2496,4.2496,0,4.1271,4.1335,4.1437,4.1562,4.1651,4.1652,4.1751,4.1825,4.1936,4.2023,4.2118,4.2255,4.2367,4.2445,4.2559,4.2624,4.2631,4.2652,4.2648,4.2661,4.2524,4.2492,4.2644,4.2644,4.2644,4.2644,4.2644,4.2644,4.137,4.1508,4.1545,4.1719,4.1781,4.1906,4.1963,4.2039,4.2109,4.2262,4.2356,4.2406,4.249,4.261,4.2713,4.2733,4.2775,4.2796,4.2816,4.2686,4.2671,4.2656,4.2626,4.2805,4.2805,4.2946,4.2947,4.2948]}]]